Regional Weather Roundup
Issued by NWS

Home | Current Version | Previous Version | Text Only | Print | Product List | Glossary On
Versions: 1 2 3 4 5 6 7 8 9 10 11 12 13 14 15 16 17 18 19 20 21 22 23 24 25 26 27 28 29 30 31 32 33 34 35 36 37 38 39 40 41 42 43 44 45 46 47 48 49 50
000
ASUS43 KTOP 211408
RWRKS

WEATHER ROUNDUP FOR KANSAS
NATIONAL WEATHER SERVICE GOODLAND KS
900 AM CDT SUN SEP 21 2014

NOTE:  "FAIR" INDICATES FEW OR NO CLOUDS BELOW 12,000 FEET WITH NO
SIGNIFICANT WEATHER AND/OR OBSTRUCTIONS TO VISIBILITY.

KSZ001>006-013>018-027>032-041>047-211500-
NORTHWEST KANSAS

CITY           SKY/WX    TMP DP  RH WIND       PRES   REMARKS
GOODLAND       PTSUNNY   55  48  77 NW5       30.36R
HAYS           SUNNY     61  46  59 N9        30.27R
HILL CITY      MOSUNNY   62  45  53 N10       30.28R
RUSSELL        SUNNY     62  51  67 N7        30.25R
$$

KSZ061>065-074>080-084>089-211500-
SOUTHWEST KANSAS

CITY           SKY/WX    TMP DP  RH WIND       PRES   REMARKS
DODGE CITY     SUNNY     63  51  65 NE12      30.27R
ELKHART          N/A     62  51  67 NE10        N/A
GARDEN CITY    SUNNY     60  48  64 NE15      30.28R
GREAT BEND     SUNNY     61  52  72 N7        30.25R
LIBERAL        SUNNY     64  50  59 NE17      30.28R
PRATT          SUNNY     66  52  59 NE10      30.23R
$$

KSZ066>073-081>083-090>101-211500-
SOUTHEAST KANSAS

CITY           SKY/WX    TMP DP  RH WIND       PRES   REMARKS
CHANUTE        SUNNY     69  55  60 NE10      30.16R
HUTCHINSON     SUNNY     66  56  70 NE7       30.21R
MEDICINE LODGE   N/A     71  50  47 NE15G21   30.20R
NEWTON         MOSUNNY   64  54  68 NE8       30.22R
PARSONS        SUNNY     69  58  67 NE5       30.15R
WICHITA INTL   MOSUNNY   71  53  52 NE13      30.19R
WICHITA JABRA  SUNNY     65  56  72 NE10      30.18R
WICHITA MCCONL SUNNY     68  54  60 NE13      30.18R HAZE
WINFIELD       MOSUNNY   69  54  58 NE8       30.17R
$$

KSZ007>012-019>026-033>040-048>060-102>105-211500-
NORTHEAST KANSAS

CITY           SKY/WX    TMP DP  RH WIND       PRES   REMARKS
CONCORDIA      SUNNY     60  51  72 NW5       30.24R
EMPORIA        SUNNY     64  58  80 N3        30.19R
LAWRENCE       SUNNY     61  57  87 NW7       30.18R
MANHATTAN      SUNNY     65  55  70 VRB3      30.21R
MARYSVILLE     SUNNY     59  52  77 N5        30.22R
OLATHE IND     SUNNY     64  56  75 NW9       30.17R
OLATHE EXE     SUNNY     65  54  67 NW6       30.16R
SALINA         MOSUNNY   64  55  72 N5        30.23R
TOPEKA BILLARD SUNNY     64  59  83 NW5       30.19R
TOPEKA FORBES  SUNNY     65  57  75 N7        30.18R
$$


USA.gov is the U.S. government's official web portal to all federal, state and local government web resources and services.